Regional Weather Roundup
Issued by NWS

Home | Current Version | Previous Version | Text Only | Print | Product List | Glossary Off
Versions: 1 2 3 4 5 6 7 8 9 10 11 12 13 14 15 16 17 18 19 20 21 22 23 24 25 26 27 28 29 30 31 32 33 34 35 36 37 38 39 40 41 42 43 44 45 46 47 48 49 50

000
ASUS43 KBIS 220910
RWRND

NORTH DAKOTA REGIONAL WEATHER ROUNDUP
NATIONAL WEATHER SERVICE BISMARCK ND
400 AM CDT FRI AUG 22 2014

NOTE: "FAIR" INDICATES FEW OR NO CLOUDS BELOW 12,000 FEET WITH NO
SIGNIFICANT WEATHER AND/OR OBSTRUCTIONS TO VISIBILITY.


NDZ001>003-009>011-017-221000-
NORTHWEST NORTH DAKOTA

CITY           SKY/WX    TMP DP  RH WIND       PRES   REMARKS
WILLISTON      CLOUDY    62  58  86 NE8       30.05R
MINOT          CLOUDY    62  59  90 N8        30.00F
MINOT AFB      CLOUDY    61  61 100 N12       30.00F
$$

NDZ018>021-031>035-040>046-221000-
SOUTHWEST NORTH DAKOTA

CITY           SKY/WX    TMP DP  RH WIND       PRES   REMARKS
BISMARCK       LGT RAIN  66  65  96 W5        30.01R
DICKINSON      CLOUDY    63  60  90 NE5       30.02R
GARRISON         N/A     65  62  90 NE6       30.00F
HETTINGER ARPT LGT RAIN  62  60  93 E7        30.04F
$$

NDZ004>008-012>016-024-026-027-054-221000-
NORTHEAST NORTH DAKOTA

CITY           SKY/WX    TMP DP  RH WIND       PRES   REMARKS
GRAND FORKS    CLOUDY    67  66  97 NW6       29.90R
GRND FRKS AFB  CLOUDY    67  67 100 N8        29.93R
DEVILS LAKE    CLOUDY    64  61  88 N10       29.96R
$$

NDZ022-023-025-028>030-036>039-047>053-221000-
SOUTHEAST NORTH DAKOTA

CITY           SKY/WX    TMP DP  RH WIND       PRES   REMARKS
FARGO          FOG       65  64  97 CALM      29.89R VSB 1/4
JAMESTOWN      CLOUDY    66  65  96 N7        29.95R FOG
$$




USA.gov is the U.S. government's official web portal to all federal, state and local government web resources and services.